User: anonymous   Login
Location: Unspecified
(0.0000°N, 0.0000°E)
Time: 12:51:26
(UTC+00:00)
Language:

AIST 2D - Orbit

View from above orbital plane
View from above orbital plane
View from above satellite
View from above satellite

Ground track
Ground track

The orbit data is extracted from the following two-line orbital elements,

1 41465U 16026B   17230.23197606  .00001286  00000-0  44759-4 0  9992
2 41465  97.2429 131.8106 0012373   8.3127 146.0657 15.31430548 72958
Epoch (UTC): 18 August 2017 05:34:02
Eccentricity: 0.0012373
inclination: 97.2429°
perigee height: 463 km
apogee height: 480 km
right ascension of ascending node: 131.8106°
argument of perigee: 8.3127°
revolutions per day: 15.31430548
mean anomaly at epoch: 146.0657°
orbit number at epoch: 7295

The dashed part of the orbit path shows where the satellite is in the earth's shadow,  

DLR